MINOTAUR DEB

Satellite information

Favourite Embed

Satellite Type and Status

DEBRISIN ORBIT

Key statistics

Satellite MINOTAUR DEB at a glance.

Uptime

9402

Days in orbit

Revolutions

≈ 14.5

Per day

Orbit

SSO

Sun Synchronous Orbit

Inclination

100.2

Latest

Satellite identification and parameters

Extended collection of information and parameters for MINOTAUR DEB.

Object identification

Identified? True

Debris? True

Object name: MINOTAUR DEB

International designator: 2000-004G

Object number (NORAD): 26079

Object ID (CCSDS): 26079

Country: UNITED STATES OF AMERICA (US)

Current information (Y/N): Y

RCS size: SMALL

Orbital parameters

Period: 99.381 minutes

Inclination: 100.2224 deg

SMA: 7107.142 km

Apoapsis: 751.604 km

Periapsis: 706.41 km

RAAN: 285.9161 deg

Eccentricy: 0.00317945

Argument of periapsis: 107.9752 deg

Mean anomaly: 306.6908 deg

Mean motion: 14.48973007 rev/day

Mean motion (dot): 0.00001773 rev/day2

B* drag term: 0.00048105401 1/REarth

Two-line elements (TLE)

Creation date: Oct. 24, 2025, 2:48 a.m.

Reference frame: TEME

Reference center: EARTH

Epoch: Oct. 23, 2025, 10:19 p.m. UTC

TLE line 0: 0 MINOTAUR DEB

TLE line 1: 1 26079U 00004G 25296.93012706 .00001773 00000-0 48105-3 0 9999

TLE line 2: 2 26079 100.2224 285.9161 0031795 107.9752 306.6908 14.48973007353382

Live tracking on map

Real-time ground track for satellite MINOTAUR DEB.

In-orbit conjunctions

A list of the most updated potential collisions computed for object MINOTAUR DEB.

Target Orbit TCA Probability of collision Miss distance Type
SL-8 R/B LEO 2025-05-01 22:18:47 0.0001486052 617.0 (m) ROCKET BODY
CZ-6A DEB LEO 2025-01-27 15:57:21 0.0001149291 107.0 (m) DEBRIS
CZ-6A DEB LEO 2024-11-14 06:07:12 0.0008579661 265.0 (m) DEBRIS
CZ-6A DEB SSO 2024-11-11 22:29:31 0.0006122738 427.0 (m) DEBRIS
CZ-6A DEB SSO 2024-09-25 11:59:56 0.0002446121 333.0 (m) DEBRIS

Associated space launch

The JAWSAT (Joint Air Force Academy / Weber State University Satellite) project was developed by students working alongside aerospace professionals. Initially designed with a pulsed-plasma thruster to train Air Force Academy cadets (see JAWSAT), the mission has since evolved to include the efforts of several universities, local aerospace companies, the Air Force Academy, the Air Force Research Laboratory, and NASA. Utilizing breakthrough technologies, JAWSAT deployed four satellites when it reached orbit. The onboard imaging system recorded the deployment of each payload with its six digital cameras. The first free-flying Academy satellite, FalconSat-1 carried the CHAWS (Charging Hazards and Wake Studies) experiment developed by the Physics Department at the Academy.

MINOTAUR DEB was lifted into orbit during the mission ‘Minotaur I | JAWSAT & FalconSat 1’, on board a Minotaur I space rocket.

The launch took place on Jan. 27, 2000, 3:03 a.m. from Space Launch Complex 8.

For more information about the launch, click the button.

Launch to space Minotaur I | JAWSAT & FalconSat 1
Minotaur I | JAWSAT & FalconSat 1

Agency: N/A

Status: Launch Successful

Launch date: Jan. 27, 2000, 3:03 a.m. UTC

Rocket: Minotaur I

Launch pad: Space Launch Complex 8

Location: Vandenberg SFB, CA, USA

...

Latest news about this satellite

There are no fresh news available about this satellite. Check back as we update our databases every day.


Newsletter sign-up

Weekly statistics, charts and insights to help you stay on top of the space industry.